GW4329 Weather Reports


time (UTC)temp
C
wind
direction
speed
KPH
gust
KPH
rain 1hr
cm
rain 24hr
cm
rain mn
cm
humidity
%
barometer
mb
20260507023603 5 348 1.6 3.2 0.00 0.00 0.00 88 1012.8
20260507022703 5 326 1.6 4.8 0.00 0.00 0.00 88 1012.7
20260507022019 5 330 1.6 4.8 0.00 0.00 0.00 88 1012.7
20260507020903 5 337 1.6 6.4 0.00 0.00 0.00 88 1012.5
20260507020003 5 332 3.2 4.8 0.00 0.00 0.00 87 1012.6
20260507015403 5 327 1.6 3.2 0.00 0.00 0.00 87 1012.6
20260507014503 5 345 1.6 3.2 0.00 0.00 0.00 87 1012.6
20260507013603 5 319 1.6 3.2 0.00 0.00 0.00 87 1012.6
20260507012703 5 322 1.6 4.8 0.00 0.00 0.00 87 1012.5
20260507011803 5 332 1.6 4.8 0.00 0.00 0.00 86 1012.5
20260507010003 6 323 1.6 3.2 0.00 0.00 0.00 86 1012.4
20260507005403 6 321 1.6 3.2 0.00 0.00 0.00 86 1012.4
20260507004503 6 309 1.6 3.2 0.00 0.00 0.00 86 1012.4
20260507003816 6 324 1.6 4.8 0.00 0.00 0.00 85 1012.3
20260507002703 6 351 3.2 4.8 0.00 0.00 0.00 85 1012.2
20260507001803 6 1 3.2 6.4 0.00 0.00 0.00 85 1012.2
20260507000903 6 5 3.2 6.4 0.00 0.00 0.00 85 1012.1
20260507000003 6 4 3.2 4.8 0.00 0.00 0.00 84 1012.2
20260506235403 6 354 1.6 4.8 0.00 0.00 0.00 84 1012.3
20260506234503 6 346 1.6 4.8 0.00 0.00 0.00 84 1012.3
20260506233603 7 333 3.2 6.4 0.00 0.00 0.00 83 1012.3
20260506232703 7 352 1.6 6.4 0.00 0.00 0.00 83 1012.3
20260506231803 7 340 1.6 6.4 0.00 0.00 0.00 82 1012.2
20260506230903 7 328 1.6 6.4 0.00 0.00 0.00 82 1012.3
20260506230003 7 330 1.6 4.8 0.00 0.00 0.00 81 1012.3
20260506225616 7 334 1.6 4.8 0.00 0.00 0.00 81 1012.3
20260506224503 7 335 1.6 4.8 0.00 0.00 0.00 80 1012.2
20260506223603 8 351 3.2 6.4 0.00 0.00 0.00 80 1012.2
20260506222703 8 348 3.2 6.4 0.00 0.00 0.00 79 1012.2
20260506221803 8 6 3.2 6.4 0.00 0.00 0.00 78 1012.2
20260506220903 8 360 4.8 9.7 0.00 0.00 0.00 77 1012.1
20260506220003 8 360 4.8 8.0 0.00 0.00 0.00 76 1012.1
20260506215403 8 3 4.8 8.0 0.00 0.00 0.00 76 1012.0
20260506214719 9 1 3.2 8.0 0.00 0.00 0.00 76 1011.9
20260506213603 9 1 4.8 11.3 0.00 0.00 0.00 75 1011.8
20260506212703 9 1 4.8 9.7 0.00 0.00 0.00 75 1011.7
20260506212017 10 358 3.2 11.3 0.00 0.00 0.00 75 1011.5
20260506210903 10 354 3.2 8.0 0.00 0.00 0.00 75 1011.4
20260506210003 10 359 3.2 11.3 0.00 0.00 0.00 75 1011.4
20260506205616 10 359 3.2 11.3 0.00 0.00 0.00 75 1011.4
20260506204503 10 359 3.2 11.3 0.00 0.00 0.00 76 1011.4
20260506203818 10 355 3.2 11.3 0.00 0.00 0.00 76 1011.4
20260506202703 10 7 4.8 9.7 0.00 0.00 0.00 77 1011.3
20260506201803 10 356 3.2 8.0 0.00 0.00 0.00 78 1011.2
20260506200903 10 346 1.6 3.2 0.00 0.00 0.00 79 1011.3
20260506200003 10 359 1.6 3.2 0.00 0.00 0.00 79 1011.1
20260506195403 10 359 0.0 1.6 0.00 0.00 0.00 79 1011.1
20260506194503 10 359 0.0 1.6 0.00 0.00 0.00 79 1011.0
20260506193603 10 359 1.6 1.6 0.00 0.00 0.00 79 1010.9
20260506192917 10 36 1.6 3.2 0.00 0.00 0.00 79 1010.8
20260506191803 10 101 0.0 1.6 0.00 0.00 0.00 79 1010.5
20260506190903 10 0 0.0 0.0 0.00 0.00 0.00 78 1010.4
20260506190003 10 0 0.0 0.0 0.00 0.00 0.00 77 1010.4
20260506185403 10 101 0.0 1.6 0.00 0.00 0.00 77 1010.3
20260506184503 10 104 0.0 1.6 0.00 0.00 0.00 76 1010.4
20260506183603 10 105 0.0 1.6 0.00 0.00 0.00 73 1010.3
20260506182703 11 0 0.0 0.0 0.00 0.00 0.00 72 1010.3
20260506181803 11 0 0.0 0.0 0.00 0.00 0.00 71 1010.2
20260506180903 11 0 0.0 0.0 0.00 0.00 0.00 71 1010.0
20260506180003 11 105 0.0 1.6 0.00 0.00 0.00 70 1010.0
20260506175618 11 105 0.0 1.6 0.00 0.00 0.00 70 1009.9
20260506174503 11 105 0.0 1.6 0.00 0.00 0.00 69 1009.7
20260506173603 11 105 0.0 1.6 0.00 0.00 0.00 70 1009.6
20260506172703 11 105 0.0 3.2 0.00 0.00 0.00 69 1009.4
20260506171803 11 95 1.6 3.2 0.00 0.00 0.00 68 1009.5
20260506170903 11 74 1.6 6.4 0.00 0.00 0.00 69 1009.4
20260506170003 11 113 0.0 1.6 0.00 0.00 0.00 68 1009.4
20260506165403 11 113 0.0 1.6 0.00 0.00 0.00 68 1009.4
20260506164503 11 114 1.6 1.6 0.00 0.00 0.00 68 1009.4
20260506163817 11 123 0.0 1.6 0.00 0.00 0.00 69 1009.5
20260506162703 11 147 0.0 1.6 0.00 0.00 0.00 68 1009.5
20260506161803 11 96 1.6 3.2 0.00 0.00 0.00 68 1009.4
20260506161119 11 99 1.6 3.2 0.00 0.00 0.00 68 1009.4
20260506160003 11 84 0.0 1.6 0.00 0.00 0.00 66 1009.3
20260506155403 11 83 0.0 3.2 0.00 0.00 0.00 67 1009.3
20260506154503 11 82 1.6 3.2 0.00 0.00 0.00 67 1009.3
20260506153603 11 87 1.6 3.2 0.00 0.00 0.00 67 1009.3
20260506152703 11 176 0.0 1.6 0.00 0.00 0.00 67 1009.4
20260506151803 11 139 0.0 3.2 0.00 0.00 0.00 66 1009.2
20260506151118 11 120 1.6 3.2 0.00 0.00 0.00 67 1009.2
20260506150003 11 105 1.6 3.2 0.00 0.00 0.00 67 1009.2
20260506145403 11 80 1.6 4.8 0.00 0.00 0.00 66 1009.2
20260506144503 11 78 1.6 4.8 0.00 0.00 0.00 66 1009.2
20260506143816 11 73 3.2 4.8 0.00 0.00 0.00 66 1009.2
20260506142703 11 68 3.2 6.4 0.00 0.00 0.00 66 1009.1
20260506141803 11 47 3.2 12.9 0.00 0.00 0.00 66 1009.0
20260506141118 11 60 3.2 9.7 0.00 0.00 0.00 67 1009.1
20260506140003 11 53 4.8 11.3 0.00 0.00 0.00 67 1009.1
20260506135617 11 49 4.8 11.3 0.00 0.00 0.00 67 1009.1
20260506134503 11 37 4.8 14.5 0.00 0.00 0.00 70 1009.0
20260506133603 11 61 3.2 8.0 0.00 0.00 0.00 69 1009.1
20260506132703 11 37 4.8 17.7 0.00 0.00 0.00 69 1009.1
20260506132018 11 52 3.2 12.9 0.00 0.00 0.00 69 1009.1
20260506131118 11 46 3.2 11.3 0.00 0.00 0.00 71 1009.0
20260506130003 11 49 3.2 8.0 0.00 0.00 0.00 72 1008.9
20260506125617 11 40 3.2 9.7 0.00 0.00 0.00 72 1009.0
20260506124503 11 37 3.2 12.9 0.00 0.00 0.00 72 1008.8
20260506123603 11 20 4.8 14.5 0.00 0.00 0.00 71 1008.9
20260506122703 11 12 4.8 16.1 0.00 0.00 0.00 70 1008.9
20260506121803 11 10 3.2 12.9 0.00 0.00 0.00 69 1008.7
20260506121117 11 4 4.8 14.5 0.00 0.00 0.00 67 1008.7
20260506120003 11 5 6.4 14.5 0.00 0.00 0.00 66 1008.6
20260506115616 11 4 4.8 12.9 0.00 0.00 0.00 68 1008.6
20260506114503 11 6 4.8 19.3 0.00 0.00 0.00 69 1008.6
20260506113603 11 8 4.8 17.7 0.00 0.00 0.00 68 1008.7
20260506112703 10 2 4.8 17.7 0.00 0.00 0.00 67 1008.7
20260506111803 11 10 4.8 12.9 0.00 0.00 0.00 67 1008.6
20260506110903 11 32 3.2 14.5 0.00 0.00 0.00 67 1008.6
20260506110003 11 9 6.4 14.5 0.00 0.00 0.00 65 1008.6
20260506105403 11 2 6.4 19.3 0.00 0.00 0.00 65 1008.6
20260506104719 11 14 8.0 19.3 0.00 0.00 0.00 64 1008.6
20260506103603 11 10 4.8 16.1 0.00 0.00 0.00 63 1008.4
20260506102703 11 15 6.4 19.3 0.00 0.00 0.00 63 1008.3
20260506102017 11 20 4.8 19.3 0.00 0.00 0.00 64 1008.3
20260506100903 11 43 3.2 9.7 0.00 0.00 0.00 66 1008.1
20260506100003 11 18 4.8 12.9 0.00 0.00 0.00 66 1008.1
20260506095403 11 14 4.8 12.9 0.00 0.00 0.00 66 1008.2
20260506094503 11 22 4.8 12.9 0.00 0.00 0.00 67 1008.2
20260506093603 11 15 4.8 17.7 0.00 0.00 0.00 68 1008.1
20260506092703 11 12 6.4 17.7 0.00 0.00 0.00 67 1008.0
20260506091803 11 13 4.8 16.1 0.00 0.00 0.00 68 1008.0
20260506090903 11 18 4.8 14.5 0.00 0.00 0.00 68 1007.9
20260506090003 10 2 4.8 11.3 0.00 0.00 0.00 70 1007.9
20260506085403 10 2 4.8 12.9 0.00 0.00 0.00 70 1007.9
20260506084503 10 3 4.8 12.9 0.00 0.00 0.00 70 1007.7
20260506083603 10 4 4.8 12.9 0.00 0.00 0.00 72 1007.7
20260506082703 10 15 3.2 9.7 0.00 0.00 0.00 72 1007.8
20260506081803 10 11 4.8 11.3 0.00 0.00 0.00 72 1007.7
20260506080903 10 19 3.2 8.0 0.00 0.00 0.00 72 1007.7
20260506072917 10 12 3.2 8.0 0.00 0.00 0.00 72 1007.7
20260506071803 10 14 3.2 14.5 0.00 0.00 0.00 74 1007.7
20260506070903 10 6 4.8 16.1 0.00 0.00 0.00 77 1007.6
20260506070219 10 21 4.8 16.1 0.00 0.00 0.00 77 1007.7
20260506061803 10 5 3.2 11.3 0.00 0.00 0.00 81 1007.2
20260506060903 10 8 4.8 11.3 0.00 0.00 0.00 81 1007.1
20260506060218 9 7 4.8 16.1 0.00 0.00 0.00 82 1007.1
20260506050903 9 357 4.8 11.3 0.00 0.00 0.00 83 1007.0
20260506044503 9 355 4.8 8.0 0.00 0.00 0.00 84 1007.1
20260506043816 9 5 4.8 11.3 0.00 0.00 0.00 84 1007.0
20260506042703 9 354 4.8 11.3 0.00 0.00 0.00 84 1007.0
20260506042019 9 2 4.8 12.9 0.00 0.00 0.00 83 1007.0
20260506040903 9 2 4.8 14.5 0.00 0.00 0.00 83 1007.0
20260506040003 9 360 4.8 8.0 0.00 0.00 0.00 83 1007.0
20260506035403 9 3 4.8 8.0 0.00 0.00 0.00 83 1007.0
20260506034717 9 2 4.8 9.7 0.00 0.00 0.00 83 1007.1
20260506033816 9 355 3.2 9.7 0.00 0.00 0.00 83 1007.1
20260506032703 9 357 4.8 8.0 0.00 0.00 0.00 83 1007.2
20260506031803 9 2 4.8 9.7 0.00 0.00 0.00 83 1007.2
20260506030903 9 357 4.8 9.7 0.00 0.00 0.00 83 1007.3
20260506030003 9 351 4.8 11.3 0.00 0.00 0.00 83 1007.5
20260506025403 9 350 4.8 9.7 0.00 0.00 0.00 83 1007.5
20260506024503 9 352 3.2 8.0 0.00 0.00 0.00 83 1007.7
20260506023815 9 358 4.8 9.7 0.00 0.00 0.00 83 1007.6